THOR ABLESTAR DEB, 745

Orbit data source: Space-Track

THOR ABLESTAR DEB, 745 is space debris in LEO originally from a launch on Sat, 28 Sep 1963 UTC launched from the Air Force Western Test Range (AFWTR). Debris objects in space refer to the collection of defunct objects orbiting the Earth. Examples of debris include non-operational satellites, rocket bodies, and fragments generated from explosions, collisions, or faulty payload assembly.

Loading next visibility...
Identifier
745, 1963-038E
Orbit
LEO
Country
Flag of USUS
Related business
Manufacturer
Unknown
Mission
Spacecraft
Bus & Motor
Unknown
Mass
Unknown
Launch date (UTC)
1963-09-28 (63 years ago)
Launch vehicle
Unknown
Launch site
Air Force Western Test Range (AFWTR)
Object type
Payload
Rocket body
Debris
Shape & HBR
Unknown shape, 0.1 m
Radar Cross Section
Medium (>0.1 m² and <1 m²)

Expand to show TLE details & history
Last TLE update: 14 hours ago

TLE from 14 hours ago
0 THOR ABLESTAR DEB
1   745U 63038E   26167.75042059  .00000196  00000-0  26807-3 0  9992
2   745  89.9834 336.1134 0015843 297.2074  79.0110 13.55608214 91375
Epoch: 2026-06-16T18:00Z
TLE epoch observation values (Epoch: 2026-06-16T18:00:36.338Z)
Latitude
16.37808°
Longitude
160.94887°
Altitude
1,051.789 km
Speed
7.328 km/s
True Right ascension
22h 24m 28s
True Declination
16° 17' 20"
Sunlit
Object was in daylight at epoch
Visualization orbit readout
Latitude
Unknown
Longitude
Unknown
Altitude
Unknown
Speed
Unknown
Apparent Right ascension
Unknown
Apparent Declination
Unknown
Sunlit
N/A
Visualization observer readout
Local Sidereal Time
18:27:53
Azimuth
Unknown
Elevation
Unknown
Doppler factor
Unknown
Orbital elements
Apogee altitude
1,060.504 km
Perigee altitude
1,036.971 km
Semi-major axis
7,426.875 km
Eccentricity
0.00158
Inclination
89.9834°
RAAN
336.1134°
Arg. of periapsis
297.2074°
True anomaly
79.18929°
Mean anomaly
79.011°
Eccentric anomaly
79.10014°
Mean motion
3.39105 °/min
Orbital period
106.16 mins
BSTAR
0.00026807
Loading maneuver chart data...
Computing Atmospheric mass density...

Documentation

Showing up to 5 results
|